Location: Banff
(51.1667°N, 115.5667°W)
Time: 15:13:40
(UTC+00:00)

Altair - Pass Details

Date: 29 November 2020
Orbit: 1501 x 1682 km, 47.2° (Epoch: 15 January)

Event Time Altitude Azimuth Distance (km) Brightness Sun altitude
Exits shadow 11:00:11 10° 167° (SSE) 3,682 9.4 -40.0°
Drops below altitude 10° 11:00:14 10° 167° (SSE) 3,694 9.4 -40.0°
Sets 11:03:49 0° 157° (SSE) 4,697 10.1 -39.4°
